[[{"header":{"parameterUnit":"m.s-1","parameterCategory":1,"la1":30.2992,"la2":30.254,"lo1":-89.0895,"lo2":-89.0443,"dy":0.0025,"dx":0.0025,"nx":19,"ny":19,"refTime":"2026-05-02T03:00:00:Z","depth":0,"parameterNumber":2,"parameterNumberName":"U-component_of_WINDS"},"data":[0,0,0,0.0365,0.0372,0.0739,0.0741,0.1207,0.1211,0,0,0,0,0,0,0,0,0,0,0,0.023,0.0232,0.0365,0.0373,0.0739,0.0741,0.1207,0.1211,0,0,0,0,0,0,0,0,0,0,0,0.0229,0.0231,0.0233,0.0374,0.0738,0.0741,0.1206,0.0936,0,0,0,0,0,0,0,0,0,0,0.0584,0.0426,0.0231,0.0233,0.0376,0.0738,0.0741,0.0924,0.0953,0.1032,0,0.1071,0,0.1146,0.124,0.1241,0,0,0,0.0401,0.0401,0.052,0.0234,0.0379,0.0737,0.0582,0.0941,0.0974,0.107,0.1078,0.1096,0.1153,0.1242,0.1245,0.1538,0.1538,0,0,0.0381,0.0289,0.0497,0.054,0.0454,0.057,0.0593,0.0961,0.0974,0.108,0.1108,0.1161,0.1245,0.1248,0.1538,0.1538,0,0,0,0.0304,0.0273,0.0384,0.052,0.0584,0.058,0.0606,0.0958,0.1,0.1113,0.1167,0.1248,0.1253,0.1538,0.1538,0.1437,0,0,0,0.0293,0.0228,0.0374,0.0322,0.0576,0.077,0.0594,0.0975,0.1019,0.1164,0.1248,0.1257,0.1538,0.1538,0.144,0.141,0,0,0,0.0217,0.022,0.026,0.0316,0.0466,0.0766,0.0831,0.0986,0.1051,0.1241,0.1258,0.1538,0.1538,0.1442,0.1415,0.1455,0,0,0,0.0115,0.0183,0.0257,0.0356,0.0462,0.0692,0.0829,0.1013,0.1164,0.125,0.1538,0.1538,0.1443,0.1417,0.1456,0.1469,0.1464,0,0,0.0151,0.0184,0.025,0.0326,0.0512,0.0644,0.083,0.1072,0.1192,0.1423,0.1431,0.1439,0.1415,0.1455,0.1472,0.1466,0,0,0,0.0231,0.0275,0.0346,0.0469,0.0636,0.0783,0.0999,0.1089,0.1284,0.128,0.1469,0.1458,0.1486,0.1497,0.1493,0.1524,0.1539,0.1539,0.1539,0.0157,0.0277,0.0394,0.0559,0.0682,0.0895,0.1012,0.1174,0.1285,0.1326,0.1396,0.1386,0.1395,0.1393,0.1424,0.1414,0.1413,0.1413,0.1413,0.022,0.0302,0.0421,0.0574,0.0712,0.0855,0.1069,0.1138,0.1303,0.1347,0.1379,0.1415,0.1382,0.1417,0.1407,0.1408,0.1408,0.1409,0.1409,0.0184,0.0244,0.0332,0.0517,0.0653,0.083,0.0971,0.1101,0.1228,0.1257,0.1345,0.1347,0.1367,0.1288,0.1288,0.1288,0.1288,0.1288,0.1288,0.0111,0.0213,0.0304,0.0475,0.0568,0.0709,0.0922,0.1028,0.1179,0.1264,0.1266,0.1371,0.1351,0.1342,0.1289,0.1289,0.1288,0.1288,0.1288,0.013,0.0141,0.028,0.037,0.0583,0.0709,0.0863,0.1063,0.1171,0.124,0.1337,0.1298,0.1353,0.1357,0.1352,0.1304,0.1304,0.1304,0.1304,0.0099,0.0129,0.0295,0.043,0.0581,0.0729,0.0903,0.1071,0.1256,0.1333,0.1359,0.1363,0.1361,0.1417,0.142,0.1417,0.1387,0.1387,0.1387,0.0118,0.0166,0.0276,0.0425,0.06,0.0753,0.0919,0.109,0.1305,0.1394,0.1397,0.1394,0.1401,0.1396,0.1488,0.149,0.1488,0,0]},{"header":{"parameterUnit":"m.s-1","parameterCategory":1,"la1":30.2992,"la2":30.254,"lo1":-89.0895,"lo2":-89.0443,"dy":0.0025,"dx":0.0025,"nx":19,"ny":19,"refTime":"2026-05-02T03:00:00:Z","depth":0,"parameterNumber":3,"parameterNumberName":"V-component_of_WINDS"},"data":[0,0,0,-8.1644,-8.1649,-8.1852,-8.1853,-8.214,-8.2142,0,0,0,0,0,0,0,0,0,0,0,-8.1604,-8.1607,-8.1644,-8.165,-8.1852,-8.1853,-8.2139,-8.2142,0,0,0,0,0,0,0,0,0,0,0,-8.1603,-8.1606,-8.161,-8.165,-8.1852,-8.1853,-8.2138,-8.1974,0,0,0,0,0,0,0,0,0,0,-8.1772,-8.1756,-8.1606,-8.161,-8.1652,-8.1852,-8.1853,-8.1966,-8.1985,-8.2061,0,-8.2138,0,-8.2146,-8.2164,-8.2165,0,0,0,-8.1633,-8.1741,-8.1778,-8.161,-8.1654,-8.1852,-8.1756,-8.1976,-8.1997,-8.2086,-8.2141,-8.2151,-8.215,-8.2166,-8.2167,-8.2676,-8.268,0,0,-8.1621,-8.165,-8.1764,-8.1793,-8.1769,-8.175,-8.1763,-8.1988,-8.2049,-8.2142,-8.2157,-8.2155,-8.2168,-8.217,-8.2673,-8.2677,0,0,0,-8.1601,-8.1643,-8.1674,-8.1782,-8.1817,-8.1756,-8.1771,-8.2039,-8.2047,-8.216,-8.2158,-8.217,-8.2174,-8.267,-8.2675,-8.2864,0,0,0,-8.1593,-8.1631,-8.167,-8.169,-8.1814,-8.1931,-8.1817,-8.2031,-8.2056,-8.2157,-8.217,-8.2177,-8.2666,-8.2673,-8.2851,-8.2947,0,0,0,-8.1584,-8.1629,-8.1667,-8.1691,-8.178,-8.1927,-8.1948,-8.2036,-8.2056,-8.2165,-8.2178,-8.2664,-8.2671,-8.284,-8.2928,-8.3093,0,0,0,-8.1581,-8.1826,-8.167,-8.1944,-8.1779,-8.2044,-8.1946,-8.214,-8.2256,-8.2172,-8.2667,-8.2674,-8.2836,-8.2917,-8.3081,-8.3237,-8.3305,0,0,-8.1906,-8.1866,-8.2025,-8.1892,-8.2194,-8.2011,-8.2338,-8.2413,-8.2393,-8.2582,-8.2594,-8.2855,-8.2927,-8.309,-8.3674,-8.3729,0,0,0,-8.2138,-8.2253,-8.2326,-8.2442,-8.2511,-8.2578,-8.2601,-8.263,-8.279,-8.2498,-8.2957,-8.2999,-8.3093,-8.3167,-8.3213,-8.3293,-8.2709,-8.2709,-8.2708,-8.2636,-8.2606,-8.2867,-8.2863,-8.2976,-8.3003,-8.3091,-8.3134,-8.3062,-8.3172,-8.3227,-8.3586,-8.3674,-8.3708,-8.3792,-8.3306,-8.3307,-8.3308,-8.3308,-8.3111,-8.327,-8.3179,-8.34,-8.3365,-8.3548,-8.3584,-8.3529,-8.3694,-8.354,-8.3621,-8.3457,-8.3769,-8.3841,-8.3322,-8.332,-8.3318,-8.3317,-8.3316,-8.3435,-8.3506,-8.3543,-8.3712,-8.3845,-8.383,-8.3996,-8.3955,-8.3917,-8.3998,-8.4055,-8.4051,-8.4044,-8.4028,-8.403,-8.4031,-8.4032,-8.4033,-8.4034,-8.3757,-8.3792,-8.394,-8.404,-8.4112,-8.4202,-8.4235,-8.4303,-8.4369,-8.4326,-8.4326,-8.4247,-8.3806,-8.3697,-8.4053,-8.4049,-8.4047,-8.4045,-8.4044,-8.4251,-8.4135,-8.4363,-8.4437,-8.4553,-8.469,-8.4639,-8.4784,-8.4834,-8.4918,-8.4823,-8.4504,-8.4457,-8.442,-8.433,-8.4828,-8.4828,-8.4828,-8.4828,-8.4525,-8.4501,-8.4728,-8.485,-8.4963,-8.4943,-8.5201,-8.5231,-8.5241,-8.527,-8.5193,-8.5069,-8.5033,-8.5008,-8.4958,-8.4873,-8.5499,-8.5499,-8.55,-8.4828,-8.4814,-8.5043,-8.5059,-8.5148,-8.5225,-8.5467,-8.5608,-8.5594,-8.5526,-8.5293,-8.5265,-8.5065,-8.5001,-8.4926,-8.4849,-8.4692,0,0]}]]